Location: Weatherford
(35.5260°N, 98.7070°W)
Time: 10:54:44
(UTC-05:00)

OPAL - Visible Passes

Search period start: 29 July 2015 00:00
Search period end: 08 August 2015 00:00
Orbit: 743 x 796 km, 100.2° (Epoch: 28 July)

Date Brightness Start Highest point End Pass type
(mag) Time Alt. Az. Time Alt. Az. Time Alt. Az.
29 Jul 7.4 22:25:15 10° NNE 22:30:12 63° ESE 22:32:38 30° S visible
30 Jul 10.2 00:06:05 10° NNW 00:08:39 14° WNW 00:10:59 10° W visible
30 Jul 8.4 21:50:31 10° NE 21:54:40 27° E 21:56:35 21° SE visible
30 Jul 9.1 23:29:13 10° N 23:33:34 30° WNW 23:36:52 15° WSW visible
31 Jul 9.3 21:17:44 10° ENE 21:18:54 11° E 21:20:26 10° ESE visible
31 Jul 7.7 22:53:22 10° N 22:58:21 70° WNW 23:00:49 30° SSW visible
01 Aug 7.6 22:18:07 10° NNE 22:22:58 50° ESE 22:24:47 34° SSE visible
01 Aug 10.0 23:58:17 10° NNW 00:01:32 17° WNW 00:04:37 10° WSW visible
02 Aug 8.7 21:43:39 10° NE 21:47:24 22° E 21:48:43 20° ESE visible
02 Aug 8.8 23:21:49 10° N 23:26:24 37° WNW 23:29:00 22° WSW visible
03 Aug 7.4 22:46:08 10° NNE 22:51:10 87° WNW 22:52:57 41° SSW visible
04 Aug 7.9 22:11:02 10° NNE 22:15:44 40° E 22:16:54 35° SE visible
04 Aug 9.7 23:50:38 10° NNW 23:54:24 21° WNW 23:57:10 14° WSW visible
05 Aug 8.9 21:36:55 10° NE 21:40:05 17° E 21:40:50 17° ESE visible
05 Aug 8.4 23:14:26 10° N 23:19:15 46° WNW 23:21:07 32° WSW visible
06 Aug 7.3 22:38:55 10° NNE 22:43:57 76° ESE 22:45:04 54° S visible
07 Aug 10.3 00:20:26 10° NW 00:22:19 12° WNW 00:23:55 10° W visible
07 Aug 8.2 22:04:01 10° NE 22:08:29 32° E 22:09:00 31° ESE visible
07 Aug 9.4 23:43:06 10° NNW 23:47:17 26° WNW 23:49:17 20° WSW visible
